Tracking 20383 objects as of 24-Feb-2020
HD Live streaming from Space Station
objects crossing your sky now
Track the group of recently launched Starlink satellites

COSMOS 2022 (GLONASS)

Track COSMOS 2022 (GLONASS) now!
COSMOS 2022 (GLONASS) is classified as:


NORAD ID: 20024
Int'l Code: 1989-039A
Perigee: 19,116.3 km
Apogee: 19,157.7 km
Inclination: 65.4 °
Period: 675.7 minutes
Semi major axis: 25508 km
RCS: 4.9605 m2 (large)
Launch date: May 31, 1989
Source: Commonwealth of Independent States (former USSR) (CIS)
Launch site: TYURATAM MISSILE AND SPACE COMPLEX (TTMTR)
aabbcc
Your satellite tracking list
Your tracking list is empty




NASA's NSSDC Master Catalog

Two Line Element Set (TLE):
1 20024U 89039A   20052.24045035 -.00000057  00000-0  00000+0 0  9991
2 20024  65.4458  29.3925 0008113 225.2479 230.9555  2.13102163239143
Source of the keplerian elements: AFSPC